Location: Hanover
(52.3667°N, 9.7167°E)
Time: 03:32:08
(UTC+02:00)

ARIANE 6 FM1 Upper Stage - Pass Details

Date: 22 September 2024
Orbit: 564 x 594 km, 62.0° (Epoch: 06 October)

Event Time Altitude Azimuth Distance (km) Brightness Sun altitude
Rises 22:02:29 0° 240° (WSW) 2,787 6.5 -24.3°
Reaches altitude 10° 22:04:44 10° 244° (WSW) 1,896 5.7 -24.6°
Maximum altitude 22:08:58 59° 325° (NW) 678 3.2 -25.1°
Enters shadow 22:09:51 48° 13° (NNE) 772 3.4 -25.2°
